S-NET D (43186 NORAD) Tracking and Keplerian Element Data

This shows tracking and keplerian element data for the satellite.

Feedback or suggestion? Click here.




ElementValue
Catalog43186
NameS-NET D
Epoch Orbit4686
Epoch Day345.67957864
Epoch Year2018
RAAN251.7688
Inclination97.717
Eccentricity0.0009694
Argument of Perigee279.2213
Mean Anonmoly80.7912
Mean Motion14.96545633
Decay Rate3.64E-06
L11 43186U 18014G 18345.67957864 .00000364 00000-0 37077-4 0 9990
L22 43186 97.7170 251.7688 0009694 279.2213 80.7912 14.96545633 46863

Live tracking and technical data element details for S-NET D (NORAD 43186). S-NET D can be tracked NOW for your location showing map with azimuth and elevation plus other details from your city location.

Track the satellite on the map from your city or location and see movement details for azimuth, elevation, latitude, longitude, range, height, and movement on the map or in text.







IsCatalogInMostPopularTable: catalog: 43186, numindb: 144
Update: records affected: 1



GetName: 43186 S-NET D

Hit Count: updated at: Thu, 13 Dec 2018 03:28:58 GMT